Date,TemperatureHighF,TemperatureAvgF,TemperatureLowF,DewpointHighF,DewpointAvgF,DewpointLowF,HumidityHigh,HumidityAvg,HumidityLow,PressureMaxIn,PressureMinIn,WindSpeedMaxMPH,WindSpeedAvgMPH,GustSpeedMaxMPH,PrecipitationSumIn
2013-1-1,20.5,6.9,-10.3,17.9,3.4,-14.5,90,85,80,30.44,30.17,8,3,11,0.00
2013-1-2,24.9,17.9,11.4,22.9,15.5,9.1,93,90,83,30.25,30.05,9,5,13,0.00
2013-1-3,14.2,9.9,3.5,11.3,6.1,-0.8,89,84,79,30.43,30.24,8,6,11,0.00
2013-1-4,25.7,18.9,12.0,18.3,13.9,8.6,95,81,71,30.25,30.16,8,4,10,0.00
2013-1-5,21.8,13.2,7.3,15.2,9.4,4.2,91,84,74,30.21,29.99,8,3,12,0.00
2013-1-6,20.0,12.8,5.9,16.5,9.9,1.8,92,88,82,30.38,30.06,7,4,10,0.00
2013-1-7,35.1,28.0,20.2,27.3,22.9,16.5,89,81,73,30.08,30.00,13,6,17,0.00
2013-1-8,30.5,24.8,17.5,27.5,21.7,14.8,92,88,82,30.07,29.82,10,4,14,0.00
2013-1-9,32.9,29.5,25.3,29.7,24.0,21.1,88,80,71,30.45,30.03,15,6,20,0.00
2013-1-10,37.9,33.0,27.4,32.4,28.1,24.1,96,83,64,30.35,29.78,9,4,13,0.11
2013-1-11,36.7,34.7,29.5,36.2,34.0,28.0,98,97,96,29.78,29.44,11,3,15,0.00
2013-1-12,28.4,10.2,2.2,27.2,5.6,-2.3,95,81,73,30.23,29.47,17,10,26,0.00
2013-1-13,5.9,3.1,-0.5,1.2,-1.6,-5.2,84,80,77,30.41,30.21,8,4,11,0.00
2013-1-14,10.3,5.4,-0.5,5.7,1.1,-3.9,86,82,73,30.58,30.41,8,3,9,0.00
2013-1-15,27.9,16.3,6.0,20.6,11.0,2.8,88,80,69,30.42,29.92,13,5,17,0.00
2013-1-16,35.1,24.2,4.6,32.2,20.0,-0.6,95,84,70,30.36,29.77,14,7,19,0.03
2013-1-17,18.5,10.1,-1.2,11.9,3.5,-6.5,85,74,63,30.54,30.36,7,3,9,0.00
2013-1-18,37.7,29.1,16.9,31.2,24.8,11.5,91,84,77,30.39,29.84,8,5,11,0.00
2013-1-19,37.6,21.4,0.3,32.3,16.3,-5.2,92,80,66,30.40,29.77,17,7,29,0.00
2013-1-20,7.4,1.4,-4.1,3.1,-4.6,-10.6,82,75,70,30.57,30.39,10,6,14,0.00
2013-1-21,-4.2,-6.6,-10.3,-10.9,-12.7,-16.9,81,74,68,30.55,30.48,11,5,17,0.00
2013-1-22,6.4,-4.2,-13.1,0.7,-10.0,-17.8,81,75,71,30.59,30.41,6,2,7,0.00
2013-1-23,12.8,4.8,-5.4,7.0,-1.6,-13.8,87,75,61,30.77,30.32,11,4,19,0.00
2013-1-24,13.8,2.7,-6.5,5.4,-6.0,-15.1,70,66,61,30.82,30.29,11,5,16,0.00
2013-1-25,18.7,10.2,1.3,14.0,3.8,-4.1,83,75,69,30.46,30.11,12,7,17,0.00
2013-1-26,23.1,11.7,-1.0,15.6,4.7,-6.0,81,73,63,30.49,30.21,9,4,11,0.00
2013-1-27,31.8,28.8,22.4,30.5,24.6,14.4,96,85,71,30.21,29.88,7,3,10,0.08
2013-1-28,33.7,32.1,30.7,32.9,31.2,29.7,98,97,96,29.97,29.72,6,2,11,0.00
2013-1-29,34.8,31.0,24.7,31.7,28.7,21.1,98,91,83,29.87,29.61,12,4,15,0.00
2013-1-30,24.7,14.6,4.4,21.1,9.9,-0.4,86,81,75,29.93,29.80,12,8,16,0.00
2013-1-31,4.3,-3.3,-9.5,-0.3,-8.9,-15.0,81,76,71,30.48,29.94,13,9,19,0.00
2013-2-1,5.5,-3.9,-13.8,2.0,-9.3,-18.7,86,77,69,30.51,30.22,6,3,10,0.00
2013-2-2,10.3,4.7,-3.1,7.2,0.6,-7.0,87,83,75,30.35,30.12,6,3,9,0.00
2013-2-3,13.4,9.8,3.3,8.5,5.5,-0.7,88,82,74,30.25,30.09,8,3,12,0.03
2013-2-4,17.4,9.3,3.4,15.0,4.7,-0.2,91,81,68,30.21,29.86,9,3,11,0.01
2013-2-5,30.3,19.8,4.4,28.0,16.2,1.2,95,86,77,30.20,29.79,10,5,14,0.00
2013-2-6,27.9,17.0,5.0,22.8,13.2,1.7,90,85,80,30.21,30.01,8,4,14,0.00
2013-2-7,27.3,24.0,19.1,23.4,21.0,16.4,94,88,79,30.38,30.12,11,7,16,0.00
2013-2-8,26.1,21.9,15.4,22.7,18.1,12.9,92,85,78,30.47,30.29,8,3,12,0.00
2013-2-9,32.0,28.0,24.8,29.8,25.9,22.3,94,92,90,30.29,29.97,12,6,16,0.00
2013-2-10,31.8,29.5,27.4,31.3,28.4,26.0,98,96,91,29.98,29.37,11,5,14,0.24
2013-2-11,27.7,22.2,15.2,26.7,19.6,11.9,96,90,84,30.17,29.50,0,0,0,0.00
2013-2-12,30.7,21.3,13.0,24.7,17.6,10.6,92,85,74,30.17,29.92,9,3,12,0.00
2013-2-13,35.5,27.0,15.0,31.9,24.1,12.8,96,89,79,29.93,29.66,7,3,9,0.04
2013-2-14,32.0,22.4,6.4,30.9,17.7,0.3,96,82,62,30.33,29.71,8,4,11,0.01
2013-2-15,16.2,6.3,-1.3,8.4,1.6,-4.5,88,81,69,30.48,30.33,7,4,9,0.00
2013-2-16,14.8,10.9,2.3,9.0,6.6,-1.0,90,83,76,30.44,30.21,6,2,8,0.00
2013-2-17,31.9,21.9,9.5,27.1,17.7,5.9,89,84,80,30.22,29.68,9,6,14,0.00
2013-2-18,32.8,19.0,2.3,31.0,15.2,-1.7,93,85,78,30.01,29.62,17,8,22,0.00
2013-2-19,2.3,-1.7,-6.8,-1.8,-7.5,-12.1,83,76,68,30.58,30.01,12,7,18,0.00
2013-2-20,11.3,0.5,-14.6,2.5,-5.9,-19.1,81,74,64,30.65,30.54,8,2,9,0.00
2013-2-21,20.1,12.9,5.3,14.6,6.4,0.0,81,75,69,30.59,30.20,10,5,13,0.00
2013-2-22,25.8,21.7,17.6,21.9,18.9,15.0,92,89,80,30.20,29.99,9,5,12,0.03
2013-2-23,23.4,15.9,7.4,18.1,13.3,4.6,93,89,80,30.09,29.97,7,3,8,0.00
2013-2-24,27.8,15.0,1.1,19.2,10.2,-2.4,91,82,63,30.24,30.09,4,1,5,0.00
2013-2-25,29.0,22.9,13.7,23.9,19.0,11.5,93,85,79,30.23,30.14,5,1,7,0.00
2013-2-26,31.6,22.1,12.0,26.4,19.0,9.9,95,88,77,30.17,30.02,9,4,11,0.00
2013-2-27,37.7,27.6,20.2,27.2,21.4,16.4,86,78,63,30.17,30.01,10,5,17,0.00
2013-2-28,28.7,26.7,21.1,24.7,21.2,15.4,89,80,74,30.34,30.17,8,4,10,0.00
2013-3-1,26.5,21.8,14.3,18.6,16.0,10.0,83,78,71,30.48,30.33,8,4,12,0.00
2013-3-2,24.5,16.6,2.2,16.9,11.1,-1.8,95,79,69,30.47,30.26,4,2,7,0.00
2013-3-3,30.7,25.2,17.9,20.1,16.1,11.6,82,68,50,30.26,30.05,10,6,15,0.00
2013-3-4,25.7,23.9,22.8,23.2,21.2,18.7,100,89,78,30.11,30.00,10,7,15,0.12
2013-3-5,29.2,24.7,21.3,25.2,22.6,18.7,95,91,83,30.43,30.05,8,4,11,0.07
2013-3-6,25.0,20.5,11.7,20.5,17.1,8.8,92,87,81,30.54,30.43,6,2,7,0.00
2013-3-7,28.0,17.7,5.7,21.3,13.3,2.0,91,83,74,30.50,30.37,9,4,16,0.00
2013-3-8,34.3,25.5,16.0,30.2,22.0,14.0,92,86,78,30.42,30.16,7,4,11,0.00
2013-3-9,35.9,34.4,33.0,35.0,33.4,30.6,97,96,90,30.16,29.76,8,4,13,0.35
2013-3-10,34.0,30.6,26.7,32.5,26.7,22.0,95,85,80,30.08,29.89,17,11,21,0.00
2013-3-11,29.3,24.9,20.0,22.3,19.8,15.7,87,81,65,30.00,29.88,11,6,16,0.00
2013-3-12,27.5,22.4,16.5,21.7,17.0,12.2,92,79,66,30.35,29.94,11,5,18,0.00
2013-3-13,25.3,17.3,7.0,20.6,13.0,4.4,89,83,76,30.53,30.35,7,3,8,0.00
2013-3-14,36.9,29.0,23.3,28.4,24.6,20.7,94,84,70,30.35,30.11,8,3,12,0.00
2013-3-15,33.6,30.3,24.7,31.2,28.2,23.2,95,92,87,30.11,29.90,8,4,13,0.00
2013-3-16,24.7,18.3,7.7,23.2,13.3,2.4,94,81,68,30.39,30.00,9,5,14,0.00
2013-3-17,27.2,16.0,4.7,23.0,9.3,-0.8,84,75,66,30.39,29.92,12,7,15,0.00
2013-3-18,30.7,19.6,8.9,29.7,16.4,4.8,96,87,79,30.01,29.71,19,12,27,0.04
2013-3-19,18.1,9.7,2.9,6.8,2.6,-1.8,84,73,56,30.40,30.01,13,8,20,0.00
2013-3-20,17.6,9.4,1.8,6.9,1.9,-3.2,80,72,56,30.43,30.29,11,7,16,0.00
2013-3-21,23.9,12.5,-0.8,12.5,4.9,-5.5,82,72,58,30.29,30.20,5,2,6,0.00
2013-3-22,29.0,18.0,1.8,18.7,10.6,-2.7,92,73,57,30.25,30.18,6,1,7,0.00
2013-3-23,31.9,22.6,9.9,22.9,16.7,6.6,92,79,64,30.29,30.21,6,2,9,0.00
2013-3-24,33.0,27.7,22.3,27.1,22.7,18.6,93,82,66,30.24,30.10,11,5,16,0.02
2013-3-25,35.5,28.1,22.0,25.2,20.8,17.5,92,75,58,30.37,30.18,9,5,16,0.00
2013-3-26,31.9,22.4,11.9,24.9,17.4,8.6,88,81,73,30.43,30.37,6,2,7,0.00
2013-3-27,38.0,27.7,12.1,26.1,19.7,9.2,90,73,57,30.46,30.41,4,1,7,0.00
2013-3-28,41.2,32.7,21.5,31.1,26.0,18.2,88,76,67,30.44,30.35,8,3,13,0.00
2013-3-29,50.1,39.8,31.5,43.2,35.0,28.5,95,83,72,30.36,30.10,8,4,9,0.00
2013-3-30,41.3,38.1,32.0,38.9,35.7,30.2,95,91,83,30.10,29.96,8,5,11,0.02
2013-3-31,35.5,31.1,20.6,31.7,24.7,13.9,97,78,58,30.24,29.91,11,8,20,0.00
2013-4-1,32.5,23.8,15.8,20.0,15.5,10.7,82,71,54,30.41,30.24,9,5,17,0.00
2013-4-2,35.7,26.9,19.2,20.1,17.2,15.2,88,68,47,30.47,30.38,7,2,9,0.00
2013-4-3,47.7,35.1,20.9,38.0,27.2,16.1,87,73,58,30.48,30.11,13,5,23,0.00
2013-4-4,47.3,39.8,30.1,34.1,30.7,24.7,90,71,52,30.27,30.09,15,6,19,0.00
2013-4-5,37.1,32.1,26.5,32.5,26.7,20.7,93,81,59,30.32,29.92,10,6,20,0.00
2013-4-6,53.3,42.1,35.2,47.5,36.6,31.5,92,81,72,29.92,29.59,10,6,16,0.07
2013-4-7,45.7,38.7,32.9,42.3,35.0,30.2,96,86,77,30.02,29.81,6,3,10,0.19
2013-4-8,43.6,41.2,37.6,42.7,39.8,36.3,98,95,89,30.13,29.74,11,6,15,0.08
2013-4-9,39.3,34.9,28.9,36.2,30.1,26.8,95,83,69,30.27,30.07,17,10,22,0.12
2013-4-10,35.2,32.7,30.3,31.1,28.5,23.8,96,85,66,30.27,29.98,16,8,22,0.01
2013-4-11,33.3,31.1,27.7,32.5,29.6,26.7,97,94,83,29.98,29.77,12,9,21,0.13
2013-4-12,36.7,30.5,26.4,30.2,27.9,25.2,96,90,73,29.95,29.80,9,4,12,0.06
2013-4-13,35.2,30.7,27.3,28.8,26.3,25.1,94,84,70,30.03,29.95,8,4,12,0.00
2013-4-14,36.2,31.9,29.4,34.2,29.2,25.5,97,90,80,30.02,29.53,13,7,23,0.20
2013-4-15,38.2,34.6,31.1,32.3,29.7,26.9,87,82,75,30.09,29.57,15,11,26,0.00
2013-4-16,41.5,35.5,31.0,32.4,28.8,26.1,86,77,63,30.42,30.08,9,4,14,0.00
2013-4-17,39.4,35.4,32.6,34.2,30.7,28.3,96,83,76,30.42,30.03,11,6,15,0.07
2013-4-18,32.5,31.6,30.7,31.5,30.5,29.2,98,96,91,30.05,29.69,15,9,22,0.39
2013-4-19,36.3,31.8,27.4,32.0,28.1,21.6,98,87,70,30.12,29.67,12,6,22,0.04
2013-4-20,36.8,29.8,19.4,27.6,20.1,16.4,88,68,45,30.40,30.12,6,2,8,0.00
2013-4-21,47.1,39.0,31.1,45.1,36.2,28.5,96,90,82,30.39,30.08,9,6,18,0.16
2013-4-22,38.7,34.6,30.4,34.1,30.5,27.2,96,85,67,30.32,30.22,14,8,20,0.07
2013-4-23,38.8,31.7,23.4,29.4,25.2,20.6,95,78,52,30.31,30.19,9,4,15,0.00
2013-4-24,48.8,36.3,28.1,35.9,30.0,25.0,94,80,48,30.18,30.01,16,7,23,0.03
2013-4-25,52.2,39.6,29.2,36.6,30.9,26.1,90,73,48,30.30,30.08,9,6,15,0.00
2013-4-26,70.3,54.6,42.0,46.4,40.4,34.8,85,61,33,30.18,30.00,10,4,12,0.00
2013-4-27,75.0,58.5,38.8,47.9,38.2,33.3,87,53,22,30.19,29.90,8,2,11,0.00
2013-4-28,82.7,63.4,49.4,53.0,48.5,44.1,87,62,29,29.90,29.67,14,6,20,0.01
2013-4-29,74.5,60.4,43.8,54.0,44.2,37.6,80,58,31,29.87,29.53,8,4,13,0.00
2013-4-30,67.0,61.6,52.4,59.2,45.0,31.4,86,58,29,30.01,29.38,15,7,23,0.00
2013-5-1,52.3,40.6,33.3,37.4,30.5,27.5,94,68,57,30.57,30.01,10,6,17,0.10
2013-5-2,46.6,39.3,34.0,30.0,26.0,23.1,76,59,44,30.67,30.53,13,9,19,0.00
2013-5-3,42.1,35.6,30.4,33.9,27.6,23.4,91,73,56,30.53,30.25,12,9,17,0.00
2013-5-4,42.4,37.1,32.6,39.6,35.0,30.6,94,92,89,30.28,30.21,11,7,14,0.01
2013-5-5,62.7,48.8,38.5,50.6,42.8,36.0,93,81,63,30.27,30.15,7,4,9,0.00
2013-5-6,73.3,58.6,41.5,53.0,47.8,39.6,94,70,47,30.18,30.05,4,2,6,0.00
2013-5-7,78.2,64.4,49.3,53.9,48.3,43.3,91,60,30,30.11,29.97,8,2,14,0.00
2013-5-8,69.4,61.7,58.1,58.8,52.9,45.7,89,73,54,30.04,29.97,9,3,15,0.00
2013-5-9,58.1,53.3,43.7,54.6,48.4,34.3,91,83,66,30.17,29.99,13,8,18,0.00
2013-5-10,68.5,52.7,36.4,43.9,29.4,20.8,74,46,18,30.19,29.95,11,5,16,0.00
2013-5-11,55.5,46.9,40.0,41.8,28.2,20.6,76,50,33,30.26,29.98,13,8,19,0.00
2013-5-12,59.6,47.2,32.6,28.0,23.7,17.8,71,43,23,30.32,30.16,9,3,14,0.00
2013-5-13,84.2,61.5,41.0,52.1,37.2,23.3,53,41,30,30.17,29.67,15,4,22,0.00
2013-5-14,97.1,75.1,53.4,55.3,45.5,29.7,68,39,12,29.73,29.48,15,5,25,0.00
2013-5-15,79.5,65.9,51.8,50.7,47.3,43.5,74,53,33,29.94,29.73,11,5,18,0.00
2013-5-16,82.4,70.1,51.7,48.6,44.7,38.7,78,44,25,29.93,29.83,9,4,15,0.00
2013-5-17,65.9,58.8,56.1,56.2,51.6,39.4,96,80,39,29.98,29.89,10,6,14,0.05
2013-5-18,80.3,67.1,57.1,69.6,62.3,56.0,98,86,64,29.99,29.77,10,4,13,0.84
2013-5-19,77.2,68.1,62.5,68.9,64.2,61.1,98,88,71,29.77,29.56,13,4,15,0.99
2013-5-20,70.4,63.9,59.0,62.9,59.7,55.9,98,87,65,29.57,29.50,13,5,19,0.09
2013-5-21,59.3,54.6,46.9,58.4,53.5,45.0,100,96,93,29.76,29.51,9,5,13,0.06
2013-5-22,51.4,47.6,44.1,49.1,45.7,43.0,97,93,83,30.07,29.75,13,8,19,0.16
2013-5-23,62.2,52.9,44.4,44.5,38.3,34.3,87,60,38,30.38,30.08,11,6,16,0.00
2013-5-24,68.5,55.7,41.2,52.1,41.5,32.5,87,61,38,30.42,30.19,7,3,12,0.06
2013-5-25,57.4,54.3,52.1,50.9,49.2,46.3,89,83,78,30.27,30.21,10,6,16,0.00
2013-5-26,54.9,52.4,49.9,50.2,46.9,43.4,89,81,76,30.24,30.06,11,6,18,0.00
2013-5-27,63.2,56.1,52.1,55.4,52.6,49.6,96,88,76,30.08,29.86,9,5,15,0.00
2013-5-28,60.9,56.7,52.8,57.1,54.5,52.0,97,93,84,29.86,29.75,6,2,10,0.03
2013-5-29,75.9,64.0,51.6,68.3,60.9,50.8,99,90,76,29.85,29.62,7,3,13,0.03
2013-5-30,74.7,67.7,63.6,66.1,63.6,61.1,96,87,65,29.64,29.49,11,4,19,0.19
2013-5-31,69.9,64.9,57.8,62.5,55.0,51.4,96,72,53,29.57,29.47,18,8,23,0.13
2013-6-1,70.8,58.8,52.8,60.9,53.0,43.7,94,82,63,30.01,29.56,12,4,19,0.23
2013-6-2,66.2,56.6,48.5,47.8,43.8,41.4,91,64,43,30.15,30.02,8,4,15,0.01
2013-6-3,68.1,59.1,45.0,47.5,45.0,42.0,91,62,43,30.10,29.94,8,2,10,0.00
2013-6-4,62.1,58.4,54.7,55.9,52.3,47.1,94,81,58,30.07,29.97,6,4,15,0.25
2013-6-5,64.1,57.8,53.0,57.7,53.7,51.2,96,87,66,30.07,29.98,6,2,9,0.03
2013-6-6,57.9,53.6,49.6,52.5,50.4,48.0,96,89,78,30.10,30.02,6,4,10,0.00
2013-6-7,63.4,57.1,52.4,52.7,51.1,49.6,93,81,65,30.11,29.96,3,1,5,0.00
2013-6-8,69.1,61.5,53.7,58.1,53.9,50.5,92,77,58,29.96,29.89,7,2,12,0.01
2013-6-9,63.8,59.7,56.3,60.4,57.2,54.1,96,91,76,29.90,29.77,10,6,15,0.41
2013-6-10,74.0,64.4,58.3,63.8,60.1,57.5,98,87,68,29.91,29.84,5,2,9,0.00
2013-6-11,77.2,66.6,57.3,68.8,62.6,56.2,98,87,68,29.95,29.82,6,2,10,0.02
2013-6-12,71.8,65.3,57.4,64.0,58.3,54.3,96,79,63,29.99,29.81,11,4,17,1.82
2013-6-13,73.7,62.9,56.3,58.5,54.1,51.0,84,73,53,30.14,29.99,6,4,12,0.00
2013-6-14,81.1,70.1,61.0,65.2,59.9,53.9,81,71,58,30.09,29.85,8,2,12,0.00
2013-6-15,81.6,71.2,62.7,68.6,63.0,53.8,96,77,39,29.92,29.85,9,2,10,0.00
2013-6-16,87.5,71.8,58.8,62.2,53.8,45.8,81,58,24,29.95,29.86,12,3,16,0.00
2013-6-17,81.4,71.5,60.0,60.4,57.0,54.0,85,62,41,30.02,29.89,7,3,13,0.00
2013-6-18,77.0,65.7,53.7,60.5,55.8,48.8,93,72,52,30.11,30.01,7,3,11,0.20
2013-6-19,87.4,74.5,61.2,66.6,60.6,56.9,87,65,36,30.06,29.91,5,2,9,0.00
2013-6-20,90.1,79.4,68.3,69.3,65.9,61.5,85,65,47,29.98,29.81,11,3,17,0.00
2013-6-21,80.1,71.5,63.7,70.1,65.4,61.1,95,82,66,30.01,29.73,14,5,19,1.11
2013-6-22,80.1,70.5,63.8,70.8,66.3,61.8,96,87,71,30.02,29.81,11,3,16,0.76
2013-6-23,81.3,73.9,67.9,69.5,67.1,63.2,97,80,57,29.89,29.66,12,6,15,1.06
2013-6-24,82.2,71.9,61.5,72.5,66.3,60.3,97,83,66,29.91,29.79,7,1,12,0.00
2013-6-25,86.5,76.1,65.7,75.2,69.6,62.8,93,81,67,29.83,29.68,6,2,13,0.00
2013-6-26,87.6,78.6,71.2,73.7,69.3,64.3,97,75,50,29.82,29.65,8,2,17,0.00
2013-6-27,86.6,77.9,69.0,67.5,62.4,56.9,88,62,38,29.86,29.80,8,3,13,0.00
2013-6-28,78.1,72.1,65.4,65.6,60.5,57.9,84,67,55,29.85,29.79,10,5,21,0.03
2013-6-29,77.0,69.5,62.5,62.3,59.2,54.0,93,71,46,30.01,29.79,11,6,17,0.01
2013-6-30,79.4,69.7,58.0,61.1,55.1,51.8,86,62,40,30.15,30.01,7,3,11,0.00
2013-7-1,83.6,72.9,61.2,63.8,58.5,53.2,91,64,37,30.21,30.14,6,2,9,0.00
2013-7-2,82.5,72.8,61.0,59.0,56.5,52.3,85,59,40,30.18,30.06,6,2,13,0.00
2013-7-3,84.8,73.4,59.5,60.5,56.2,52.0,91,58,33,30.08,29.94,5,1,8,0.00
2013-7-4,90.4,76.7,61.6,63.7,58.7,54.8,86,57,32,29.95,29.83,13,4,18,0.00
2013-7-5,89.1,78.6,68.8,66.9,62.2,57.7,71,58,44,29.86,29.77,15,7,23,0.00
2013-7-6,89.6,79.3,70.8,72.7,66.4,61.6,74,65,52,29.85,29.76,9,3,14,0.00
2013-7-7,92.9,80.2,72.0,74.8,69.6,66.9,86,71,54,29.88,29.80,9,3,17,0.00
2013-7-8,88.2,75.9,67.9,73.0,69.0,65.5,96,81,55,30.01,29.88,5,2,9,0.00
2013-7-9,84.1,76.0,67.3,72.2,69.2,64.1,97,80,65,29.96,29.71,14,4,16,0.70
2013-7-10,80.9,71.4,59.9,64.1,59.3,56.2,88,67,45,30.09,29.96,8,2,15,0.00
2013-7-11,86.3,73.3,58.4,62.7,60.3,57.0,96,67,42,30.12,29.94,8,2,14,0.00
2013-7-12,89.6,76.8,67.3,69.0,63.0,58.6,75,63,48,29.97,29.84,10,4,20,0.00
2013-7-13,76.9,70.9,66.7,71.5,65.8,62.1,91,84,66,30.04,29.87,12,4,17,0.37
2013-7-14,84.8,74.3,67.1,70.8,66.1,61.5,86,76,58,30.17,30.02,8,2,12,0.00
2013-7-15,89.4,78.1,66.3,70.3,67.6,63.6,91,72,49,30.22,30.13,8,2,11,0.00
2013-7-16,92.0,81.8,71.1,73.8,70.6,68.2,93,71,47,30.20,30.14,9,4,15,0.00
2013-7-17,93.0,82.7,71.1,74.7,70.6,66.9,87,69,48,30.23,30.08,8,4,11,0.00
2013-7-18,93.4,83.6,73.0,73.5,71.5,69.2,89,69,48,30.08,29.74,13,7,21,0.00
2013-7-19,84.9,78.7,68.9,71.7,65.6,60.5,86,65,46,29.90,29.72,9,3,13,0.00
2013-7-20,78.7,70.6,63.0,66.4,62.3,58.6,92,76,59,29.96,29.88,5,2,9,0.00
2013-7-21,82.9,71.4,61.4,69.9,64.3,57.8,96,79,62,29.94,29.77,6,3,10,0.65
2013-7-22,84.9,73.7,64.6,73.4,65.4,57.7,95,77,54,29.88,29.68,8,3,15,0.00
2013-7-23,75.3,67.3,58.5,58.4,56.3,51.7,89,69,45,30.03,29.88,7,3,12,0.00
2013-7-24,80.1,69.5,59.9,61.4,57.4,54.8,86,67,43,30.08,29.97,5,1,7,0.00
2013-7-25,80.1,71.1,60.7,68.7,62.5,57.3,92,75,55,29.99,29.92,11,3,23,0.02
2013-7-26,68.9,62.3,54.2,63.1,54.6,48.2,91,77,59,30.14,29.93,13,5,20,0.01
2013-7-27,66.1,58.8,49.7,50.5,47.7,45.4,88,68,52,30.14,29.99,9,4,13,0.00
2013-7-28,73.4,60.7,49.4,56.1,50.5,45.0,89,70,51,30.11,30.02,6,2,9,0.00
2013-7-29,78.4,65.7,52.4,62.1,55.6,50.1,93,72,44,30.15,30.08,5,1,9,0.02
2013-7-30,69.9,65.5,62.0,64.8,62.2,59.9,96,89,81,30.11,30.05,2,0,4,0.06
2013-7-31,78.9,67.3,59.4,66.5,60.5,54.1,98,81,52,30.12,30.03,7,2,11,0.03
2013-8-1,82.1,68.9,54.1,63.5,57.1,51.0,90,68,45,30.08,29.88,5,1,8,0.00
2013-8-2,76.4,67.2,56.5,58.9,55.7,51.8,92,68,46,30.07,29.88,6,2,10,0.00
2013-8-3,78.9,67.0,54.7,58.5,53.6,50.0,91,65,40,30.23,30.08,6,2,10,0.00
2013-8-4,74.4,64.2,55.5,60.0,55.9,51.4,86,75,56,30.26,30.00,3,1,7,0.00
2013-8-5,80.6,68.9,60.8,68.9,63.2,57.0,98,83,60,30.07,29.82,6,2,11,1.90
2013-8-6,84.9,68.7,56.2,69.5,62.3,55.1,97,82,56,29.87,29.71,12,3,15,0.14
2013-8-7,73.8,65.4,59.5,60.0,56.4,52.0,97,75,49,30.06,29.82,8,3,12,0.01
2013-8-8,71.1,62.8,56.1,62.7,58.1,53.6,94,85,68,30.10,30.01,6,2,9,0.11
2013-8-9,74.7,65.9,55.9,60.9,56.7,52.8,97,75,48,30.16,30.04,6,2,12,0.01
2013-8-10,76.4,66.9,56.1,58.6,56.5,51.9,96,71,49,30.22,30.10,4,1,8,0.00
2013-8-11,82.0,70.5,63.9,66.1,62.8,58.0,92,77,57,30.11,30.01,5,1,6,0.00
2013-8-12,78.4,69.1,58.7,63.3,58.5,54.8,91,71,49,30.09,30.03,7,2,11,0.00
2013-8-13,74.3,65.4,56.3,58.3,54.1,50.1,95,69,45,30.23,30.09,5,2,8,0.00
2013-8-14,76.7,64.8,52.4,56.6,53.0,49.2,95,69,39,30.24,30.12,6,2,9,0.00
2013-8-15,78.3,66.5,56.2,60.3,56.8,52.3,93,73,49,30.17,30.10,5,1,7,0.00
2013-8-16,78.8,66.9,53.9,60.7,56.8,52.0,96,73,47,30.23,30.16,7,2,9,0.00
2013-8-17,81.7,67.9,54.3,61.8,57.5,52.0,93,72,49,30.21,30.11,10,3,16,0.00
2013-8-18,81.0,69.2,54.8,61.5,58.2,51.9,91,70,49,30.14,30.00,14,4,17,0.00
2013-8-19,88.3,75.5,65.6,73.1,66.4,60.0,86,74,58,30.05,29.87,8,3,15,0.00
2013-8-20,88.6,77.6,67.7,75.8,71.1,65.6,94,81,64,29.90,29.83,6,2,12,0.00
2013-8-21,86.9,78.0,69.3,77.2,71.7,61.1,96,82,57,30.01,29.81,6,2,9,0.00
2013-8-22,82.3,73.5,65.4,63.4,57.1,51.3,84,58,36,30.13,30.00,9,4,12,0.00
2013-8-23,86.4,73.4,60.6,71.8,63.6,53.2,88,72,58,30.15,30.01,4,2,8,0.00
2013-8-24,89.7,78.5,69.5,74.6,71.2,66.9,92,79,59,30.03,29.89,14,5,18,0.00
2013-8-25,92.9,83.1,74.8,77.8,74.2,70.7,88,75,59,29.97,29.90,12,8,19,0.00
2013-8-26,95.1,83.3,73.2,79.8,75.3,71.4,94,78,58,29.96,29.79,10,4,17,0.00
2013-8-27,90.8,82.0,72.9,80.5,75.7,70.8,94,82,69,29.91,29.76,8,2,10,0.00
2013-8-28,87.8,79.4,71.3,75.7,73.2,69.5,95,82,67,30.00,29.90,5,2,9,0.00
2013-8-29,92.4,81.8,74.8,76.2,73.0,70.0,94,76,52,29.97,29.83,10,3,12,0.00
2013-8-30,79.9,75.2,69.1,72.5,68.3,65.4,92,80,66,29.93,29.83,8,4,13,0.00
2013-8-31,88.9,73.2,62.1,71.3,65.8,59.7,93,79,52,29.89,29.73,9,2,14,0.05
2013-9-1,71.6,66.6,56.9,65.2,60.3,54.0,91,81,69,30.03,29.77,6,2,12,0.01
2013-9-2,67.4,57.4,50.1,55.6,51.9,48.2,94,83,63,30.16,30.03,8,2,9,0.00
2013-9-3,78.5,62.8,48.0,62.9,55.4,46.2,94,79,52,30.15,30.02,6,2,9,0.01
2013-9-4,86.6,71.8,58.9,69.8,63.8,56.5,94,77,56,30.16,30.04,6,2,10,0.00
2013-9-5,85.9,72.9,63.6,70.6,64.0,57.1,90,74,59,30.22,30.08,5,2,9,0.00
2013-9-6,91.6,79.1,70.1,72.0,69.4,67.7,93,74,50,30.08,29.84,12,4,17,0.00
2013-9-7,89.8,78.6,67.5,73.3,69.5,65.7,94,75,50,29.99,29.85,8,3,13,0.00
2013-9-8,75.6,68.5,63.2,68.5,62.9,58.3,88,82,73,30.03,29.87,7,4,14,0.00
2013-9-9,93.5,76.6,66.8,75.3,69.3,64.7,94,80,49,29.87,29.62,9,3,14,0.06
2013-9-10,83.5,72.3,65.7,67.3,64.3,61.2,93,78,48,30.00,29.78,8,3,14,0.01
2013-9-11,84.5,71.7,60.3,64.0,58.1,51.7,92,66,35,30.10,30.00,7,2,9,0.00
2013-9-12,73.5,64.3,55.1,55.2,50.6,46.6,86,63,40,30.26,30.10,11,3,19,0.00
2013-9-13,71.0,59.6,47.2,49.6,46.8,44.2,90,65,41,30.32,30.10,4,1,7,0.00
2013-9-14,69.9,57.5,48.7,57.2,50.4,43.9,93,78,52,30.11,29.90,9,3,14,0.37
2013-9-15,65.5,58.0,51.0,55.9,53.7,48.5,94,86,67,30.36,29.90,9,4,14,0.29
2013-9-16,66.6,53.8,43.2,51.8,47.2,41.0,93,80,56,30.46,30.28,4,1,15,0.01
2013-9-17,61.8,55.5,47.9,56.6,51.8,45.7,93,88,78,30.28,29.96,5,2,9,0.01
2013-9-18,81.5,68.9,58.7,73.0,65.7,56.6,95,90,74,29.96,29.67,7,2,10,0.07
2013-9-19,72.9,69.3,63.4,69.5,65.9,60.6,94,89,77,29.80,29.63,17,2,22,1.35
2013-9-20,62.2,56.3,48.8,53.6,50.7,46.0,94,82,67,30.00,29.87,9,3,16,0.01
2013-9-21,65.2,53.5,42.9,50.2,46.1,41.3,94,78,54,30.06,29.94,5,1,8,0.01
2013-9-22,78.5,62.0,47.5,58.7,52.2,44.5,90,72,49,29.98,29.82,8,3,17,0.00
2013-9-23,75.7,63.8,53.0,56.2,53.1,49.2,87,70,46,29.93,29.84,6,3,14,0.00
2013-9-24,71.5,59.7,50.5,58.9,53.3,47.8,93,80,61,29.98,29.92,3,1,9,0.00
2013-9-25,76.2,62.6,51.9,56.8,53.0,49.7,93,73,47,30.00,29.85,6,2,11,0.00
2013-9-26,82.6,68.4,56.2,63.2,58.0,51.3,85,71,51,29.91,29.78,8,3,13,0.00
2013-9-27,84.3,72.6,65.2,67.3,63.1,60.7,91,73,50,29.88,29.74,11,3,18,0.06
2013-9-28,72.1,60.0,47.1,62.7,53.7,42.9,93,80,61,29.97,29.61,12,4,16,0.23
2013-9-29,78.4,60.3,41.6,52.3,45.8,38.9,91,63,32,30.00,29.78,11,3,15,0.00
2013-9-30,80.1,66.0,53.4,54.2,50.5,46.6,80,59,38,29.77,29.58,12,5,19,0.00
2013-10-1,74.4,64.6,50.6,54.3,45.3,33.9,76,53,23,30.02,29.58,10,4,15,0.00
2013-10-2,76.7,58.1,42.8,54.6,44.3,37.2,93,66,27,30.08,29.84,9,2,13,0.56
2013-10-3,58.0,55.7,54.1,55.5,53.7,52.4,94,93,90,29.99,29.87,9,5,12,0.01
2013-10-4,57.1,54.9,52.1,54.6,52.9,50.4,94,93,90,30.01,29.84,10,7,17,0.25
2013-10-5,58.3,50.6,42.0,56.6,46.6,40.2,94,87,69,29.88,29.78,9,3,14,0.04
2013-10-6,50.5,46.1,40.8,48.4,44.3,39.2,94,93,90,29.94,29.75,8,2,12,0.18
2013-10-7,68.9,53.3,41.4,48.9,42.7,39.3,93,71,36,30.03,29.91,4,1,6,0.00
2013-10-8,78.7,62.0,49.1,52.2,47.0,42.6,84,61,35,29.99,29.79,17,5,25,0.00
2013-10-9,76.9,63.9,53.6,55.5,50.5,47.8,81,63,45,30.04,29.92,11,4,17,0.00
2013-10-10,79.6,64.1,51.5,58.0,51.2,46.2,83,65,42,30.03,29.84,7,2,15,0.00
2013-10-11,70.8,63.1,54.6,62.4,55.4,48.1,91,76,61,29.85,29.58,15,6,31,0.44
2013-10-12,56.1,50.0,42.8,48.1,41.8,36.0,89,74,52,30.26,29.73,14,6,24,0.00
2013-10-13,59.7,46.5,34.6,41.3,35.9,31.9,91,69,38,30.50,30.26,5,1,8,0.00
2013-10-14,51.9,47.3,44.6,46.1,40.2,35.9,92,77,66,30.45,29.93,10,4,15,0.59
2013-10-15,51.9,48.6,44.9,49.9,46.7,42.4,94,93,91,29.94,29.69,11,6,18,0.44
2013-10-16,54.6,45.8,38.7,42.4,39.4,34.5,91,80,48,30.04,29.94,10,3,17,0.00
2013-10-17,49.9,43.3,39.2,45.2,39.1,35.4,92,85,75,29.98,29.86,7,2,10,0.17
2013-10-18,51.9,42.5,33.8,38.7,34.8,28.8,93,76,43,30.07,29.92,10,4,17,0.03
2013-10-19,45.2,37.9,30.6,39.5,32.8,27.5,92,82,61,29.91,29.78,10,4,18,0.02
2013-10-20,45.5,37.0,30.7,40.5,33.2,27.2,91,86,72,30.01,29.68,9,3,16,0.03
2013-10-21,39.9,33.7,26.4,27.4,24.5,21.6,88,69,56,30.07,30.01,10,4,20,0.00
2013-10-22,39.8,33.0,24.2,31.2,27.5,21.4,92,81,68,30.15,30.05,5,2,7,0.00
2013-10-23,37.2,34.0,28.8,30.0,25.6,22.2,90,72,56,30.22,30.10,8,3,11,0.00
2013-10-24,44.0,35.4,26.6,33.0,28.4,21.1,90,76,60,30.42,30.22,9,3,13,0.00
2013-10-25,60.2,42.1,24.1,44.1,33.9,21.0,89,74,54,30.42,29.88,13,6,22,0.00
2013-10-26,48.0,40.4,31.1,40.1,30.9,26.0,84,69,54,30.20,29.91,9,4,17,0.00
2013-10-27,57.4,41.3,28.5,37.8,30.9,24.2,85,68,46,30.22,29.89,10,5,17,0.00
2013-10-28,41.0,35.1,29.8,30.4,25.2,21.0,81,68,48,30.50,30.22,10,6,15,0.00
2013-10-29,38.6,35.0,30.8,35.1,30.0,25.4,93,82,75,30.49,30.16,7,4,10,0.03
2013-10-30,47.9,43.0,36.9,46.1,41.2,35.1,94,93,93,30.16,29.75,5,2,7,0.01
2013-10-31,45.6,39.3,37.2,43.9,37.4,35.6,94,93,89,29.75,29.49,7,4,11,0.00
2013-11-1,50.6,42.2,35.5,40.9,37.5,33.5,93,84,69,29.95,29.51,9,4,13,0.00
2013-11-2,50.5,40.2,31.6,37.8,34.4,29.8,93,81,59,30.16,29.95,6,2,8,0.00
2013-11-3,55.1,45.0,35.8,38.3,34.6,31.6,85,68,45,30.15,29.87,13,6,21,0.00
2013-11-4,48.2,43.4,35.9,42.6,36.8,29.7,92,78,64,30.22,29.83,10,4,15,0.20
2013-11-5,39.6,33.6,28.8,32.3,29.1,25.3,93,84,63,30.33,30.14,7,2,14,0.30
2013-11-6,33.7,29.1,24.3,29.6,25.5,21.8,93,86,74,30.28,30.14,8,3,9,0.01
2013-11-7,35.3,27.2,19.7,30.5,24.3,17.8,93,89,80,30.36,30.27,7,2,11,0.00
2013-11-8,42.3,33.8,22.8,38.4,28.9,20.3,92,83,63,30.30,29.69,10,4,15,0.01
2013-11-9,42.7,38.9,34.3,39.1,33.0,27.3,91,79,66,30.33,29.74,15,9,20,0.00
2013-11-10,37.1,34.9,29.7,32.5,29.9,26.3,88,82,75,30.42,30.18,8,4,12,0.00
2013-11-11,35.9,22.1,13.9,31.8,13.4,7.7,87,69,55,30.87,30.22,12,7,17,0.00
2013-11-12,29.4,18.3,9.1,16.3,11.0,5.9,87,74,50,30.92,30.55,8,4,12,0.00
2013-11-13,52.2,34.9,20.0,37.6,26.7,14.5,82,73,54,30.55,29.95,13,6,19,0.00
2013-11-14,54.4,40.7,31.4,41.7,34.5,28.3,89,79,59,29.95,29.83,10,3,14,0.00
2013-11-15,56.1,41.8,30.5,42.2,35.7,27.6,91,80,57,29.91,29.66,10,2,15,0.00
2013-11-16,47.9,43.0,38.3,46.3,40.7,34.9,94,91,83,29.66,29.28,6,3,8,0.02
2013-11-17,43.5,38.0,30.3,39.5,34.7,24.8,94,88,81,29.95,29.36,14,7,24,0.00
2013-11-18,35.3,29.5,23.0,25.2,22.9,18.8,85,76,61,30.34,29.95,13,5,20,0.00
2013-11-19,48.3,36.8,24.3,35.0,28.8,20.2,85,73,59,30.34,29.93,10,5,20,0.00
2013-11-20,46.0,41.4,35.0,35.8,33.4,30.5,91,74,65,30.09,29.90,12,4,20,0.00
2013-11-21,36.6,26.4,19.7,34.1,21.2,12.8,93,81,67,30.67,30.09,11,7,15,0.00
2013-11-22,36.7,19.8,8.5,17.1,9.2,2.8,87,66,28,30.80,30.57,12,6,16,0.00
2013-11-23,17.0,9.7,4.0,5.3,2.4,-0.3,83,72,58,31.00,30.81,8,4,13,0.00
2013-11-24,37.1,21.8,5.3,19.0,11.5,0.2,79,65,45,30.85,30.09,17,9,24,0.00
2013-11-25,38.0,32.9,28.1,28.6,24.8,18.7,87,72,61,30.20,30.01,13,7,19,0.00
2013-11-26,28.9,19.7,11.9,21.3,10.1,5.9,79,66,53,30.52,30.20,11,7,18,0.00
2013-11-27,23.6,16.1,6.4,12.7,8.4,2.9,92,72,56,30.52,30.17,6,2,11,0.00
2013-11-28,25.4,21.1,12.2,16.4,12.9,7.8,83,71,59,30.62,30.18,8,3,12,0.00
2013-11-29,33.0,22.6,11.7,20.6,15.3,7.1,83,74,59,30.62,30.21,11,3,15,0.00
2013-11-30,42.1,30.0,21.5,30.7,23.7,18.6,90,78,62,30.28,30.13,5,2,9,0.00
2013-12-1,32.5,25.9,17.5,25.8,21.7,15.0,98,84,75,30.29,30.00,5,1,5,0.00
2013-12-2,36.9,33.1,28.3,33.9,30.1,24.1,93,89,83,30.00,29.63,7,4,11,0.07
2013-12-3,34.9,33.5,31.6,33.0,31.9,30.1,94,94,92,29.85,29.64,6,2,10,0.00
2013-12-4,31.5,24.5,8.6,30.0,22.8,6.0,94,93,89,29.86,29.59,15,7,22,0.31
2013-12-5,8.5,3.6,-2.7,5.8,0.4,-6.4,99,86,83,30.51,29.86,15,9,20,0.00
2013-12-6,-0.1,-5.0,-9.0,-4.5,-8.9,-12.8,84,83,81,30.84,30.51,9,4,12,0.00
2013-12-7,0.0,-7.2,-13.5,-5.2,-11.5,-17.6,95,81,76,30.91,30.74,7,3,9,0.00
2013-12-8,11.0,5.2,-5.1,8.1,2.2,-9.0,89,87,83,30.73,30.19,6,2,11,0.00
2013-12-9,5.5,-1.8,-7.2,2.7,-6.0,-11.4,89,82,75,30.28,29.98,11,6,17,0.00
2013-12-10,15.0,6.4,-2.2,12.6,2.2,-6.1,90,82,76,30.47,29.92,12,6,16,0.00
2013-12-11,2.2,-4.5,-10.6,-2.8,-9.7,-14.8,82,78,73,30.74,30.44,8,4,12,0.00
2013-12-12,17.1,11.0,0.8,11.6,6.6,-3.6,87,82,77,30.46,30.27,6,2,8,0.00
2013-12-13,13.2,11.3,8.1,9.5,7.1,4.7,87,83,79,30.42,30.24,10,7,15,0.00
2013-12-14,10.5,6.7,-1.0,7.5,2.7,-5.9,92,83,78,30.42,30.26,10,5,12,0.01
2013-12-15,3.1,1.1,-1.5,-3.1,-4.7,-6.8,80,76,69,30.33,30.25,6,3,9,0.00
2013-12-16,31.5,12.1,1.9,27.2,8.7,-3.1,91,86,79,30.26,30.06,11,4,16,0.01
2013-12-17,32.6,22.8,8.5,27.9,17.8,5.4,88,81,71,30.22,30.04,13,7,20,0.00
2013-12-18,35.4,24.0,9.4,29.1,19.5,6.7,89,83,76,30.16,29.75,9,3,10,0.00
2013-12-19,25.5,15.7,13.1,21.1,11.0,7.4,88,82,74,30.18,29.93,12,7,15,0.00
2013-12-20,15.1,12.9,8.6,13.2,9.3,5.5,92,85,82,30.16,29.99,9,4,12,0.00
2013-12-21,17.2,14.5,11.6,13.6,11.5,9.2,91,88,84,30.14,29.99,8,4,12,0.00
2013-12-22,13.1,7.1,-2.3,10.0,3.1,-6.8,88,83,77,30.45,30.10,8,5,13,0.00
2013-12-23,-2.1,-7.7,-14.7,-5.3,-13.1,-19.8,92,76,70,30.72,30.45,9,4,12,0.00
2013-12-24,11.1,-1.4,-17.1,8.2,-6.4,-21.9,88,79,65,30.69,30.29,8,3,11,0.04
2013-12-25,28.2,17.7,11.3,24.9,14.0,8.1,92,85,73,30.30,30.19,12,4,21,0.00
2013-12-26,28.1,20.8,13.0,24.0,17.7,10.5,90,88,82,30.28,30.17,3,1,4,0.00
2013-12-27,38.3,30.3,17.7,32.5,27.0,14.8,92,87,78,30.27,30.01,10,5,13,0.00
2013-12-28,40.9,28.9,14.3,33.3,25.7,10.2,93,88,74,30.17,29.73,15,4,24,0.00
2013-12-29,13.9,-4.4,-12.4,10.0,-10.6,-17.3,89,74,59,30.50,30.17,12,5,21,0.00
2013-12-30,1.7,-5.4,-12.5,-2.0,-9.6,-17.2,84,81,78,30.46,30.33,6,2,11,0.00
2013-12-31,0.2,-5.9,-12.6,-4.6,-10.6,-16.5,84,80,76,30.60,30.40,6,2,8,0.00
2014-1-1,-0.6,-4.0,-8.6,-7.2,-10.5,-14.7,76,73,69,30.67,30.58,7,4,11,0.00
2014-1-2,-0.1,-6.5,-13.3,-8.5,-13.1,-17.9,92,73,59,30.70,30.53,5,2,8,0.00